Theta_e
340 340 337 335 333 333 332 332 333 333 331 326 324 322 320 319 319 320 318 317 315 315 315 314 313 314 312 312 312 311 310 307 303 307 309 313 314 314 313 314 315 315 315
339 338 335 334 332 332 332 332 332 329 327 324 321 319 317 317 316 315 313 313 312 311 311 312 310 309 311 313 311 310 309 309 306 306 308 308 311 313 313 313 312 313 314
335 334 333 332 331 331 332 331 327 325 322 319 319 317 315 314 313 313 313 312 311 310 310 309 309 310 310 308 308 308 308 308 308 306 305 308 308 309 310 312 312 313 312
332 332 331 330 330 330 328 324 319 320 318 317 316 315 314 313 313 312 311 311 310 309 309 308 309 310 308 309 308 308 308 307 307 305 305 304 305 307 307 304 304 308 309
329 329 329 329 329 327 322 319 318 316 315 315 315 315 315 314 310 311 310 309 309 308 309 309 310 307 306 307 307 308 308 306 305 303 302 301 301 302 302 304 303 304 308
328 326 328 328 325 321 318 315 314 313 313 316 315 314 312 309 300 302 305 311 311 310 309 309 310 309 309 309 307 306 306 306 304 303 302 300 303 303 304 304 304 303 299
328 327 328 325 320 318 314 314 310 312 314 313 315 314 313 309 301 300 300 312 312 310 309 310 308 307 307 305 305 306 306 307 304 305 304 303 303 304 306 305 304 304 302
327 327 325 322 319 316 313 308 309 311 312 313 314 314 312 306 300 299 300 311 313 311 309 308 307 306 303 301 304 305 305 306 306 304 305 306 306 307 308 306 306 307 306
326 325 324 322 318 317 310 306 309 311 313 313 313 312 310 307 300 299 301 309 310 310 310 306 305 305 296 297 304 304 304 305 305 304 303 301 300 299 302 306 302 301 300
325 324 323 320 317 315 308 306 310 314 312 311 310 310 306 307 299 298 301 310 309 308 309 308 298 300 296 295 303 303 301 301 304 305 306 306 306 307 304 308 305 302 303
326 324 321 318 313 309 308 308 310 312 311 310 308 308 308 308 304 297 298 308 307 307 308 307 305 295 294 295 295 302 299 299 303 303 302 303 304 306 305 307 308 306 304
322 321 314 309 308 307 307 307 310 310 309 308 307 306 307 308 301 297 297 296 298 306 306 306 304 295 294 295 297 294 294 296 302 301 300 300 300 302 304 306 308 310 311
317 312 307 306 307 306 305 307 306 308 305 304 303 303 304 306 305 298 298 296 295 302 305 298 296 296 295 297 296 296 296 301 300 299 299 299 300 303 307 306 309 311 310
308 306 306 305 304 304 306 305 304 303 303 301 302 302 303 304 306 305 304 304 298 301 301 305 302 298 297 301 302 304 304 302 299 299 299 300 301 303 303 304 302 303 302
308 305 304 307 306 305 305 304 303 308 303 302 302 304 303 303 304 301 301 306 306 300 299 308 307 307 307 305 306 305 305 304 302 301 300 299 299 301 301 303 302 302 300
305 305 305 303 305 303 302 302 294 298 295 295 298 301 303 297 294 294 294 293 293 292 302 306 307 306 305 305 304 304 305 303 303 303 302 300 299 299 299 302 302 301 300
307 306 307 304 304 302 302 302 300 299 295 293 292 293 294 296 293 293 293 292 292 291 303 306 307 307 306 306 305 305 304 305 306 304 303 302 301 301 300 300 301 301 300
313 303 309 309 306 303 303 303 303 303 303 304 294 297 292 292 292 291 291 292 301 297 303 304 305 307 306 305 305 304 305 305 305 305 304 303 303 302 301 301 301 300 300
312 309 310 309 307 304 304 305 305 306 305 306 308 296 295 291 291 291 291 302 303 303 304 305 306 306 306 306 305 305 306 305 303 304 304 304 304 303 302 302 301 292 293
312 303 305 308 306 305 305 305 305 306 306 306 306 306 307 300 302 303 303 304 304 304 304 304 305 306 306 307 307 307 306 305 305 304 304 304 304 304 302 302 302 300 300
311 307 299 308 306 306 306 306 306 306 306 306 306 304 294 304 304 304 304 304 304 304 305 305 305 306 307 307 307 306 306 305 305 304 304 304 304 303 303 302 301 302 301
307 306 306 306 306 305 306 307 307 306 305 305 305 303 288 304 305 304 305 305 306 306 306 307 306 307 307 306 307 306 305 305 304 305 305 305 304 303 302 301 300 299 299
309 307 306 306 306 300 305 306 306 306 305 305 305 305 305 304 305 305 306 306 307 307 307 307 307 306 308 308 308 308 306 306 306 306 305 305 304 304 302 301 299 298 297
309 307 307 306 306 306 306 306 306 299 304 305 305 305 306 306 307 307 307 308 308 308 309 308 308 308 308 309 309 309 309 310 309 308 308 306 304 303 303 301 300 295 298
308 306 306 306 306 306 306 306 305 306 305 305 305 306 306 307 307 308 308 308 308 309 309 310 310 310 310 310 311 310 303 290 302 293 307 306 305 306 305 303 300 295 298
308 308 307 307 306 306 305 305 306 306 306 306 306 307 307 307 307 308 308 309 309 309 310 310 310 311 311 311 310 299 290 288 297 287 300 304 305 305 304 300 298 296 298
Wind_Speed
18 16 16 15 16 14 13 12 12 11 10 8 7 6 5 5 4 3 2 3 4 5 5 6 6 8 8 8 7 7 8 6 10 9 11 11 13 12 13 13 14 13 11
17 17 17 16 16 15 14 13 12 11 9 8 7 5 5 6 4 3 4 5 5 5 6 6 8 7 9 7 9 6 9 9 9 13 11 10 9 11 11 14 11 11 11
18 18 18 17 17 16 14 13 12 9 10 9 8 6 5 6 4 4 4 5 5 6 6 7 7 7 6 7 7 9 9 9 9 9 11 9 9 9 12 12 13 13 11
18 19 18 19 18 17 15 15 12 10 9 9 7 8 7 5 5 3 4 4 5 5 5 6 6 8 8 9 8 7 9 10 10 10 10 10 9 10 9 9 11 13 14
20 19 19 18 17 16 16 11 11 10 9 7 9 9 7 5 4 4 4 4 4 4 4 4 6 5 5 6 8 10 11 10 10 10 9 8 9 9 9 8 9 9 14
20 20 19 18 17 15 14 13 15 9 11 11 9 10 7 6 7 6 6 3 3 3 4 5 4 4 6 4 5 8 9 8 10 10 10 10 9 10 10 10 9 10 11
19 19 19 18 17 15 14 15 11 10 10 10 10 8 8 8 6 4 3 2 2 4 5 5 6 7 8 12 12 11 9 14 10 8 12 12 14 14 12 14 11 12 12
19 19 19 19 18 16 15 11 12 10 10 11 10 9 9 8 6 3 5 2 1 3 5 5 6 7 11 11 12 10 9 9 6 9 10 11 11 11 11 13 14 10 8
20 20 19 18 19 19 15 13 11 12 11 11 10 10 9 10 5 3 8 5 3 3 3 6 7 8 10 12 12 9 9 8 7 3 10 12 13 12 11 10 9 8 10
20 19 18 16 19 18 14 13 10 11 11 10 10 9 8 9 6 3 6 2 3 1 4 5 5 7 7 9 10 9 10 11 12 11 10 8 6 4 13 8 11 10 10
15 15 15 15 15 15 13 10 9 12 12 11 11 9 9 8 8 3 3 5 2 2 2 2 6 6 5 8 9 8 9 11 13 9 8 8 8 8 8 9 10 9 10
15 15 15 14 12 11 13 7 10 10 11 12 11 9 8 8 6 7 1 4 5 5 3 4 5 2 6 7 8 6 11 14 8 8 8 8 8 8 9 9 10 7 6
15 16 14 14 12 11 10 9 9 10 10 10 9 8 8 7 8 8 7 6 6 6 5 4 2 7 13 9 8 8 11 7 7 7 8 8 8 7 9 8 9 8 5
17 18 16 15 13 12 8 11 9 9 9 9 9 8 8 7 8 9 8 8 11 10 8 7 2 7 8 5 6 3 5 6 7 7 8 7 7 7 7 7 6 8 9
18 15 13 13 14 14 11 8 9 8 8 9 7 7 8 8 7 6 3 0 4 7 6 4 2 1 2 3 3 4 5 6 7 7 7 8 7 6 8 7 8 8 8
17 12 11 10 11 10 9 7 10 7 9 8 6 1 7 8 13 10 6 2 2 5 7 3 0 1 2 3 3 4 5 5 6 7 7 7 7 7 7 7 6 7 8
16 16 13 13 13 13 12 10 9 3 4 2 2 3 2 4 10 9 7 5 5 5 9 3 2 1 1 2 3 3 5 5 5 5 6 7 8 7 6 7 7 8 9
17 16 15 13 12 13 10 11 10 11 10 8 8 9 8 7 10 9 7 4 7 9 9 5 3 2 2 3 3 4 4 4 4 5 5 6 6 7 7 8 8 9 9
16 13 12 12 11 11 12 12 11 11 11 10 11 7 8 9 6 6 7 8 9 6 6 5 4 4 3 3 4 4 4 6 5 6 6 5 6 7 7 8 8 5 5
15 17 11 11 12 14 13 12 11 10 9 8 8 9 11 9 9 10 10 10 10 7 6 5 5 5 4 4 5 5 6 6 6 6 6 6 6 6 7 8 8 10 10
12 12 11 12 12 12 12 11 10 10 9 8 8 7 11 9 9 9 9 9 8 7 7 6 6 5 5 6 7 7 8 8 7 7 7 7 7 7 7 7 7 9 9
9 10 8 9 11 12 11 11 10 10 9 8 8 9 8 8 7 7 7 7 7 8 7 7 6 7 7 8 8 9 9 10 8 7 7 7 6 8 9 8 7 7 10
9 11 11 10 11 11 10 10 9 9 9 9 9 9 10 9 9 8 7 7 7 7 7 7 8 8 8 9 9 9 10 10 9 10 10 9 8 8 6 8 6 5 9
11 12 12 13 11 11 11 11 10 9 9 9 9 8 8 9 9 8 7 7 7 7 7 7 8 10 10 10 10 10 10 11 10 11 13 11 10 9 9 6 6 3 10
9 10 11 12 12 12 11 11 10 11 10 10 9 9 9 9 9 8 8 8 8 8 9 9 9 12 14 17 16 18 13 6 9 8 10 13 14 14 10 5 4 5 11
11 13 12 12 11 11 11 11 11 11 11 10 10 9 9 9 9 9 8 9 9 9 10 9 11 15 16 14 16 10 3 2 6 3 7 10 11 9 5 5 5 7 9
Wind_Direction
192 181 178 181 180 174 175 173 172 164 163 161 139 131 110 80 55 49 45 14 359 355 359 355 343 338 344 328 332 323 324 6 299 308 308 329 318 326 328 330 311 313 310
188 181 178 180 176 175 177 168 158 163 160 145 136 126 102 92 86 50 28 17 8 356 355 346 343 341 324 338 341 3 304 307 323 309 331 313 332 322 334 315 321 318 322
183 180 175 174 172 176 167 157 153 155 153 134 131 141 116 92 84 76 32 24 10 350 345 345 344 338 346 340 322 344 329 338 313 328 303 329 333 353 333 329 338 325 311
183 182 173 171 173 166 156 157 150 139 151 161 143 119 123 128 97 71 45 12 349 345 343 341 351 5 359 350 339 314 346 319 325 315 335 340 352 347 346 339 327 333 329
184 180 172 169 165 155 158 144 138 156 142 134 145 133 134 144 87 44 31 13 2 351 4 351 57 13 333 329 327 347 325 329 328 321 323 338 353 328 330 326 333 319 325
186 176 169 165 155 153 145 151 141 149 159 165 143 146 154 99 91 54 339 42 60 51 21 18 336 175 359 288 263 275 283 321 319 327 324 344 327 325 340 338 321 335 333
186 172 169 165 158 150 141 151 132 164 158 152 150 151 132 117 126 114 303 134 49 26 38 13 350 39 7 348 336 291 282 225 239 317 310 331 326 330 334 326 333 323 329
184 175 170 167 162 150 145 145 148 152 161 157 157 144 140 113 132 145 256 161 113 74 44 32 11 4 29 342 321 337 332 327 359 329 334 323 323 327 317 314 311 308 322
184 176 169 161 163 156 155 149 158 164 158 153 148 150 144 132 140 207 263 186 128 104 80 57 6 10 15 341 320 342 336 358 335 295 267 263 261 253 261 305 338 324 333
184 178 167 159 164 157 152 145 181 158 155 148 144 145 109 128 157 206 284 180 144 172 195 141 99 30 351 330 326 351 349 352 326 324 321 312 264 277 223 285 335 342 344
167 158 164 156 148 147 137 153 172 159 147 142 141 141 151 147 147 175 321 294 1 272 354 353 92 64 334 304 306 5 339 312 305 321 331 336 340 340 351 354 336 341 344
145 151 137 137 139 131 127 155 166 139 146 149 147 162 149 151 112 159 231 346 1 307 325 2 86 60 278 274 309 327 291 290 346 341 351 354 351 353 347 338 329 1 343
130 127 128 125 114 122 128 161 161 160 152 154 165 162 150 171 155 156 201 224 239 264 16 27 272 254 261 233 223 258 276 360 348 354 356 359 351 349 313 350 11 344 343
129 131 129 121 131 142 163 179 145 162 163 164 165 154 156 163 171 176 194 203 220 219 194 190 220 271 270 284 270 217 11 7 348 357 356 355 352 342 357 11 329 359 353
139 133 132 137 152 168 160 151 158 169 159 153 161 161 161 171 169 106 54 16 5 48 310 256 246 3 29 39 42 30 38 9 14 2 1 357 2 352 350 1 356 353 354
140 143 151 159 155 149 146 134 39 100 92 68 45 88 118 84 124 134 141 156 294 298 259 263 318 34 35 21 20 19 31 30 11 8 9 4 0 352 348 344 351 348 349
149 155 158 161 158 159 156 166 163 126 63 150 206 264 354 134 159 161 174 205 237 241 245 247 266 299 336 331 341 353 9 32 355 8 11 7 3 357 335 351 346 353 351
163 165 163 160 160 158 164 174 179 175 182 186 214 215 214 174 178 184 174 191 228 212 258 250 259 280 282 291 301 324 334 331 0 344 353 355 359 351 353 352 345 356 348
166 168 160 159 163 160 174 184 193 184 189 189 164 182 192 193 182 175 164 244 254 236 225 231 239 255 269 282 297 305 303 299 336 301 311 327 338 336 343 349 348 334 295
167 160 163 158 159 181 186 188 190 189 194 195 190 198 153 159 189 199 205 221 239 242 240 245 246 250 258 267 269 269 269 272 282 277 291 300 302 311 317 334 345 339 336
163 151 164 178 173 185 184 191 186 188 196 202 202 189 151 203 203 204 198 208 224 235 236 246 252 245 233 243 256 264 267 271 270 273 276 284 294 299 301 306 324 329 323
155 147 169 193 175 185 189 189 190 192 198 197 200 142 143 217 233 209 214 222 224 228 243 247 248 252 258 265 271 271 276 278 281 274 274 272 277 289 290 293 307 320 320
146 161 184 194 191 179 187 192 195 198 203 200 199 179 182 210 230 225 223 228 233 237 239 240 244 249 249 252 255 258 266 276 287 297 295 294 284 275 290 282 301 318 307
167 173 188 197 186 186 194 198 199 205 213 204 204 210 201 203 216 229 239 237 231 234 234 237 241 244 250 248 254 258 255 260 275 283 289 287 278 269 266 264 292 290 282
166 186 195 194 185 200 193 202 204 206 210 224 210 213 219 223 228 231 236 236 234 241 246 250 249 250 250 253 257 267 277 278 282 314 289 277 272 272 274 273 258 262 279
184 201 196 192 190 193 203 200 211 211 221 213 218 224 226 227 228 233 235 236 242 246 251 256 260 262 266 267 268 282 120 182 277 232 268 256 254 257 257 235 231 253 278